Wetbulb
31.86 32.41 32.08 31.80 32.02 31.88 31.17 31.62 31.80 32.29 33.04 33.26 33.56 32.96 33.30 33.38 34.12 33.59 33.29 33.30 32.64 32.81 32.76 31.85 33.42 32.96 35.27 33.16 32.81 32.17 32.32 31.69 30.52 26.65 27.95 29.05 31.22 31.79 31.52 29.27 29.87 28.87 30.39
31.91 31.70 31.66 31.22 30.33 28.98 29.18 29.95 30.03 30.41 30.62 31.20 32.23 31.86 32.11 32.28 32.06 32.53 32.60 33.23 31.90 31.79 31.66 31.70 32.00 33.82 32.63 31.24 32.85 33.83 34.53 31.83 31.12 24.61 25.60 26.43 28.34 31.07 30.08 28.32 27.30 27.81 26.98
29.97 28.91 29.16 28.75 28.17 27.86 27.07 27.93 28.95 29.03 28.36 29.02 29.38 29.41 30.13 30.37 30.77 31.52 31.33 31.73 31.74 31.92 31.99 31.43 32.71 30.59 32.29 32.94 31.62 32.90 32.95 31.87 31.99 25.33 24.05 25.17 25.51 29.20 25.84 25.84 25.47 24.33 26.52
28.93 28.25 27.10 27.35 27.95 27.68 26.90 26.05 26.50 27.69 26.82 26.81 27.38 28.14 28.80 30.01 30.13 30.32 30.76 31.26 31.36 31.98 32.08 32.28 32.43 31.66 31.84 31.96 31.69 31.77 31.90 30.98 32.67 27.88 22.85 24.06 24.60 27.69 27.37 24.74 23.77 26.11 25.20
27.04 26.31 25.92 25.98 26.33 25.86 25.48 25.32 24.97 26.39 26.56 25.92 26.36 26.86 27.09 28.02 29.22 29.40 30.02 30.52 29.95 30.59 31.04 31.29 31.72 32.07 33.59 33.72 31.95 32.19 31.39 31.37 31.02 31.43 27.63 21.57 23.64 24.87 25.26 25.57 24.90 25.67 25.71
24.77 24.90 26.02 25.95 26.06 25.75 25.17 24.59 24.50 24.28 24.60 24.21 24.51 25.28 25.25 26.96 30.93 32.55 32.29 30.20 31.37 31.00 30.43 30.67 30.84 31.23 31.40 35.14 36.59 36.91 34.31 31.95 31.40 30.71 30.83 26.66 25.68 26.06 26.96 25.04 25.28 23.86 21.33
26.08 25.66 25.77 25.79 24.63 25.31 25.39 24.40 23.44 22.35 22.42 22.77 23.16 23.27 23.56 25.34 29.94 30.95 32.32 29.82 29.56 30.22 30.55 30.67 31.05 31.10 30.99 31.12 33.47 36.06 36.53 37.09 36.54 32.87 31.24 30.75 27.85 26.57 26.46 25.35 25.36 26.41 26.30
23.96 23.17 23.78 24.27 23.95 24.95 24.24 23.77 23.19 22.30 21.39 21.51 21.49 21.54 21.82 23.39 28.13 29.29 30.48 28.73 28.41 28.97 29.52 29.97 30.14 30.45 31.25 31.03 30.84 30.09 30.70 32.39 33.86 34.01 32.79 33.10 32.71 29.45 28.84 28.34 27.47 28.22 24.84
23.25 23.02 22.84 21.81 21.40 22.44 21.71 22.11 22.63 21.80 20.94 20.31 20.55 19.52 19.49 20.52 25.38 26.78 27.27 25.91 26.71 27.19 28.82 29.44 29.43 29.82 32.18 33.70 31.09 29.55 29.18 29.75 33.58 36.15 36.61 36.76 36.78 35.29 31.10 28.95 25.56 23.91 18.25
20.64 20.61 20.33 19.71 18.41 18.05 18.91 19.38 20.67 20.34 20.16 20.07 18.95 18.90 18.37 17.24 22.20 24.18 24.64 23.25 23.54 25.36 26.94 28.35 30.22 29.29 32.77 33.61 31.24 30.42 28.01 28.33 29.38 30.21 31.37 34.31 35.75 34.26 33.00 30.11 28.15 24.84 25.27
16.43 15.53 14.75 13.86 12.04 12.06 12.47 13.57 13.91 14.24 15.53 14.91 14.87 15.25 15.17 15.89 16.46 21.74 23.38 21.53 22.20 23.39 24.61 25.84 27.86 31.78 33.53 34.03 34.41 31.41 30.04 30.43 30.19 29.87 29.61 30.42 31.12 30.30 29.76 29.77 29.91 29.07 26.02
11.81 9.95 7.71 6.45 6.65 7.87 6.13 6.78 7.46 8.15 8.42 9.07 9.75 10.66 12.85 14.49 17.57 19.76 22.09 23.62 24.73 22.67 23.67 26.08 27.22 31.02 32.18 33.04 33.21 34.35 34.78 33.50 29.70 28.58 28.04 27.46 28.20 27.38 27.98 28.41 28.23 28.79 28.54
5.47 3.26 2.83 3.51 4.08 4.35 2.82 2.90 2.91 3.77 3.93 4.51 6.04 6.41 7.84 11.34 12.59 17.29 19.62 21.45 22.97 21.93 24.77 27.84 30.05 30.77 31.43 31.43 33.29 34.36 33.00 31.97 29.45 27.35 26.73 26.25 27.18 27.79 27.35 26.15 26.27 24.14 22.78
1.13 1.57 2.46 1.87 1.73 2.44 3.70 3.86 2.58 2.21 2.13 2.65 2.70 2.91 4.16 6.02 8.04 10.44 12.15 14.17 16.47 19.91 24.75 26.13 27.93 28.67 29.48 29.16 29.45 31.99 32.06 31.00 29.30 27.18 26.21 26.50 26.74 26.03 25.15 25.16 22.56 22.08 19.99
1.12 1.56 1.12 1.46 1.04 1.57 2.84 2.56 3.19 4.95 5.81 4.82 5.95 7.07 6.73 6.72 9.16 13.87 14.39 13.15 13.50 16.71 19.16 22.42 23.24 22.61 22.62 25.00 27.17 29.00 28.96 29.69 28.01 27.96 26.14 24.91 24.20 24.46 23.68 24.49 22.42 21.10 18.74
0.32 0.86 0.97 0.81 0.68 1.35 1.25 1.59 8.71 11.20 12.96 14.18 15.35 13.97 12.05 15.94 17.64 17.96 18.47 19.05 19.67 20.70 17.69 16.89 18.46 20.93 20.49 22.87 25.21 25.56 25.81 26.98 27.65 27.51 25.31 24.51 23.55 22.34 20.21 20.27 19.87 18.69 17.44
0.09 0.87 0.45 0.41 -0.08 -0.22 0.46 0.41 -0.42 4.63 11.53 12.90 13.78 14.57 15.60 16.14 16.83 17.20 17.95 18.67 19.71 19.92 15.62 16.63 17.02 19.18 21.83 22.74 24.38 24.18 24.23 25.48 27.51 26.73 24.62 24.33 21.23 19.97 17.87 17.10 16.73 17.07 16.17
1.56 1.06 -0.24 -0.35 -0.32 0.14 0.83 1.72 2.56 1.84 1.28 2.84 9.54 11.88 14.13 16.46 17.31 17.65 18.35 18.27 13.41 14.93 14.76 15.93 16.37 19.01 22.18 23.12 23.16 23.31 24.72 25.19 25.27 24.81 23.08 20.40 19.59 17.74 17.01 16.48 16.10 15.46 15.27
0.48 0.41 0.71 0.65 1.17 1.92 2.90 3.60 3.87 3.74 3.44 3.97 5.51 9.75 11.12 14.42 16.16 17.34 18.63 14.10 12.70 12.08 12.66 14.69 18.02 20.24 22.67 23.22 23.17 23.74 25.14 22.10 21.72 20.72 19.83 19.01 18.96 17.65 16.75 16.36 15.84 15.50 14.91
0.23 1.56 2.19 1.40 1.45 1.63 2.52 2.87 3.38 4.23 4.84 6.34 7.12 7.67 10.67 8.95 7.82 8.90 11.13 12.11 14.30 14.57 15.76 17.26 21.83 24.10 23.86 23.33 23.80 23.86 22.24 20.60 19.63 19.16 18.42 17.80 17.34 17.01 15.29 14.48 14.21 13.18 13.00
0.53 -0.39 -0.03 0.45 0.20 1.24 2.48 3.00 3.24 4.26 4.33 4.99 5.40 7.41 15.07 8.10 6.17 7.56 9.10 10.52 11.38 14.05 17.23 18.01 22.11 23.61 22.53 20.42 21.68 20.73 19.38 18.91 18.33 17.38 16.49 15.97 15.93 14.53 14.72 14.28 13.34 12.69 11.75
-2.34 -1.46 -1.12 -1.63 -0.19 0.50 1.15 2.33 2.85 3.26 2.98 2.70 2.73 4.30 10.94 4.46 4.65 4.64 5.56 6.83 7.90 9.29 12.03 16.81 16.53 16.45 15.15 16.40 18.21 17.31 15.96 14.93 14.48 14.68 14.22 14.19 13.61 12.98 12.50 11.52 11.04 10.82 10.90
-2.45 -2.61 -2.96 -2.52 -1.61 -0.32 0.15 0.98 1.50 1.49 1.57 1.98 2.30 1.98 2.28 2.32 2.26 2.61 3.30 4.91 5.88 6.68 8.31 9.56 10.55 11.15 12.87 13.77 14.99 14.96 13.00 12.28 12.60 13.04 12.33 11.84 11.63 11.41 11.34 10.48 9.85 9.14 8.73
-5.10 -3.79 -3.43 -3.36 -2.99 -2.10 -1.58 -0.72 0.47 1.00 1.09 1.50 1.61 1.76 1.68 1.82 1.78 2.10 2.61 3.22 3.90 4.53 5.45 6.17 6.54 7.31 9.11 9.79 10.67 11.34 11.61 11.68 12.23 12.24 12.02 10.91 10.23 10.23 9.98 9.28 9.01 8.47 8.26
-8.89 -7.03 -6.18 -4.55 -4.13 -3.66 -3.35 -2.77 -1.48 -0.67 0.55 1.23 1.35 1.65 1.83 2.10 1.98 2.06 2.27 2.59 2.18 2.08 2.33 2.61 3.42 3.97 4.43 6.04 7.44 9.60 11.78 10.78 10.61 11.36 10.79 10.09 9.13 8.73 8.21 7.84 7.70 7.69 7.63
-9.58 -9.92 -10.36 -7.05 -6.09 -4.50 -3.80 -3.64 -3.43 -2.84 -2.11 -0.94 -0.27 0.31 0.55 0.35 0.79 1.33 1.74 1.89 1.76 1.78 1.72 1.90 1.98 2.73 4.96 5.58 6.40 8.09 8.71 9.53 7.92 8.55 8.53 7.97 6.57 6.11 6.42 5.85 5.74 5.64 5.64
MSLP
1021.85 1021.78 1021.30 1020.81 1020.25 1019.59 1018.16 1018.58 1019.05 1019.12 1018.90 1018.42 1017.89 1017.64 1017.47 1017.07 1016.77 1016.44 1016.10 1015.94 1015.88 1015.80 1015.89 1016.03 1015.89 1015.75 1015.53 1015.33 1015.28 1015.44 1015.87 1016.37 1017.15 1017.83 1017.81 1017.91 1018.56 1019.21 1020.06 1020.72 1020.97 1021.44 1022.02
1022.14 1022.14 1021.57 1020.54 1020.13 1019.45 1018.97 1019.43 1019.70 1019.43 1019.02 1018.80 1018.24 1017.91 1017.69 1017.26 1016.73 1016.38 1016.17 1015.57 1015.34 1015.48 1015.19 1015.15 1015.12 1015.39 1015.17 1014.85 1014.79 1014.86 1014.88 1015.22 1015.97 1016.97 1017.25 1017.78 1017.81 1018.06 1018.80 1019.95 1020.38 1020.57 1020.76
1021.37 1021.52 1021.41 1020.66 1020.12 1019.70 1019.63 1019.92 1020.24 1019.99 1019.46 1018.89 1018.24 1017.69 1017.26 1017.15 1016.76 1016.19 1015.63 1015.43 1014.96 1014.68 1014.62 1014.53 1014.22 1014.40 1014.41 1014.42 1014.26 1014.10 1014.30 1014.37 1014.53 1015.54 1016.46 1016.91 1017.18 1017.70 1018.53 1019.34 1020.11 1020.57 1020.38
1020.49 1020.83 1020.62 1020.36 1019.86 1019.25 1019.29 1019.61 1019.73 1019.14 1018.62 1018.21 1017.85 1017.53 1017.33 1016.86 1016.43 1015.87 1015.43 1015.08 1014.32 1014.14 1013.91 1013.76 1013.65 1013.17 1013.24 1013.47 1013.52 1013.39 1013.69 1013.96 1013.87 1014.30 1015.04 1015.44 1015.98 1016.75 1017.61 1018.22 1019.34 1019.73 1019.93
1020.97 1021.01 1020.91 1019.93 1019.56 1019.23 1018.92 1018.84 1018.70 1018.49 1018.19 1017.97 1017.74 1017.48 1016.90 1016.43 1016.31 1015.70 1015.14 1014.41 1013.93 1013.65 1013.14 1012.98 1012.95 1012.40 1012.20 1012.08 1012.43 1012.36 1012.74 1012.89 1013.20 1013.19 1013.71 1014.29 1014.73 1015.75 1016.21 1016.84 1017.60 1018.59 1019.31
1021.03 1020.95 1020.66 1020.20 1019.83 1019.48 1019.10 1018.98 1018.76 1018.60 1018.18 1017.77 1017.44 1017.01 1016.73 1016.08 1015.58 1015.08 1014.43 1013.90 1013.48 1013.44 1012.85 1012.28 1011.65 1011.66 1011.42 1011.15 1010.86 1011.25 1011.20 1011.49 1011.61 1012.04 1011.92 1011.86 1012.38 1013.21 1014.43 1015.24 1016.46 1017.70 1018.68
1021.38 1021.17 1020.61 1020.09 1019.76 1019.27 1018.99 1018.77 1018.57 1018.29 1017.83 1017.37 1016.93 1016.69 1016.17 1015.30 1014.74 1014.21 1013.62 1013.21 1012.81 1012.22 1011.73 1011.30 1010.94 1010.60 1010.22 1010.25 1010.18 1010.12 1009.79 1009.85 1009.76 1010.61 1010.45 1009.91 1010.62 1010.62 1012.44 1013.46 1014.27 1014.94 1014.92
1021.16 1020.76 1020.39 1020.05 1019.72 1019.26 1018.91 1018.46 1017.94 1017.68 1017.24 1016.76 1016.28 1015.90 1015.32 1014.32 1013.82 1013.32 1012.74 1012.19 1011.64 1010.87 1010.43 1010.08 1009.84 1009.24 1009.04 1009.25 1009.29 1009.57 1009.10 1008.79 1008.54 1008.95 1008.86 1008.70 1008.86 1009.94 1010.18 1010.26 1011.33 1012.72 1014.40
1021.03 1020.63 1020.30 1019.98 1019.67 1019.24 1018.67 1018.05 1017.41 1017.09 1016.45 1015.94 1015.53 1014.85 1014.38 1013.30 1012.93 1012.52 1012.12 1011.30 1010.31 1009.43 1008.93 1008.57 1008.17 1007.65 1007.48 1007.70 1008.13 1007.95 1007.70 1007.63 1007.70 1007.55 1007.53 1007.97 1008.16 1008.46 1009.11 1010.49 1011.13 1012.31 1013.75
1021.22 1020.96 1020.68 1020.43 1020.06 1019.60 1019.00 1018.18 1017.35 1016.74 1015.81 1015.21 1014.44 1013.95 1013.35 1012.57 1011.82 1011.50 1011.24 1010.59 1009.32 1008.15 1007.35 1006.91 1006.49 1006.23 1006.01 1006.18 1006.41 1006.40 1006.12 1005.40 1006.87 1006.98 1007.10 1006.87 1007.25 1007.36 1007.80 1007.77 1009.15 1009.84 1010.91
1021.76 1021.54 1021.22 1020.97 1020.67 1020.16 1019.30 1018.62 1017.85 1017.04 1016.06 1015.09 1014.22 1013.23 1012.72 1012.09 1010.87 1010.17 1009.79 1009.33 1008.24 1007.07 1006.15 1005.30 1004.79 1004.50 1004.31 1004.40 1004.61 1004.51 1003.96 1004.68 1005.26 1005.69 1006.07 1006.47 1006.43 1006.58 1006.60 1006.58 1006.81 1007.86 1008.81
1022.08 1021.85 1021.60 1021.27 1020.84 1020.07 1019.35 1018.44 1017.83 1017.05 1015.92 1014.81 1013.80 1012.46 1011.56 1010.81 1009.98 1008.88 1008.21 1007.62 1006.76 1005.73 1004.37 1003.60 1003.23 1003.13 1002.94 1002.80 1002.76 1002.52 1002.84 1003.69 1004.37 1004.75 1004.81 1004.66 1004.98 1005.13 1005.23 1005.93 1006.46 1006.96 1007.18
1022.19 1021.90 1021.57 1020.99 1020.44 1019.79 1019.01 1018.11 1017.31 1016.58 1015.55 1014.35 1013.30 1012.00 1010.84 1010.24 1009.37 1008.65 1007.36 1006.37 1005.31 1004.27 1002.82 1001.77 1001.72 1001.70 1001.59 1001.34 1001.15 1001.17 1001.60 1002.20 1002.60 1003.28 1003.33 1003.26 1003.66 1004.55 1005.38 1006.18 1007.02 1006.99 1007.21
1022.08 1021.60 1021.14 1020.56 1019.85 1019.25 1018.50 1017.64 1016.63 1015.81 1014.84 1013.86 1012.75 1011.49 1010.39 1009.55 1008.90 1008.27 1007.34 1006.38 1005.39 1003.70 1001.90 1000.49 1000.13 1000.23 1000.35 1000.15 1000.15 1000.02 1000.22 1000.63 1001.06 1001.38 1002.04 1002.79 1003.42 1004.14 1005.03 1005.74 1006.72 1006.97 1007.59
1021.98 1021.26 1020.55 1019.92 1019.14 1018.31 1017.65 1016.85 1015.80 1014.89 1014.02 1012.38 1011.04 1009.84 1008.58 1007.39 1007.01 1006.34 1005.42 1004.78 1004.26 1003.28 1002.07 1000.54 999.41 999.31 999.32 999.02 998.76 998.71 998.94 999.45 999.86 1000.29 1000.99 1001.68 1002.56 1003.26 1004.04 1005.05 1006.06 1006.69 1007.03
1021.53 1020.79 1020.15 1019.42 1018.54 1017.64 1016.56 1015.42 1014.78 1013.38 1012.17 1010.98 1009.67 1008.43 1007.00 1005.88 1004.85 1004.08 1003.34 1002.63 1002.17 1001.82 1000.88 999.82 999.00 998.50 998.03 997.78 997.74 997.71 997.92 998.24 998.60 999.36 999.83 1000.54 1001.45 1002.25 1003.36 1004.56 1005.56 1006.42 1006.82
1021.16 1020.35 1019.61 1018.77 1017.87 1016.90 1015.84 1014.70 1013.14 1011.86 1010.87 1009.63 1008.46 1007.28 1006.04 1004.73 1003.70 1002.71 1001.81 1001.04 1000.41 1000.02 999.23 998.57 997.98 997.73 997.26 996.80 996.91 997.04 997.19 997.47 998.01 998.37 998.86 999.49 1000.53 1001.63 1002.75 1003.95 1004.94 1006.06 1006.24
1020.56 1019.85 1019.11 1018.13 1017.22 1016.19 1015.09 1013.80 1012.54 1011.05 1009.46 1008.18 1006.80 1006.12 1004.81 1003.57 1002.34 1001.19 1000.21 999.47 998.98 998.61 998.07 997.39 997.01 996.66 996.34 995.72 995.95 996.15 996.46 996.80 997.17 997.64 998.12 999.04 999.94 1000.83 1002.13 1003.26 1004.41 1004.80 1005.80
1019.88 1019.01 1018.27 1017.40 1016.46 1015.41 1014.24 1012.96 1011.71 1010.37 1008.98 1007.45 1005.94 1004.29 1003.21 1002.43 1001.30 1000.11 999.06 998.36 997.62 997.15 996.89 996.49 995.71 995.21 995.05 994.53 994.88 995.25 995.54 996.09 996.58 997.24 997.91 998.72 999.70 1000.50 1001.54 1002.69 1003.67 1004.21 1005.40
1019.23 1018.33 1017.49 1016.67 1015.70 1014.64 1013.54 1012.37 1011.00 1009.70 1008.33 1006.86 1005.51 1004.13 1002.32 1001.40 1000.36 999.08 998.04 997.24 996.29 995.69 995.22 994.78 994.02 993.43 993.37 993.62 994.05 994.38 994.94 995.72 996.42 997.15 997.84 998.67 999.59 1000.40 1001.37 1002.40 1003.32 1004.21 1005.10
1018.82 1017.88 1017.13 1016.26 1015.36 1014.28 1013.16 1011.98 1010.82 1009.50 1008.33 1007.00 1005.71 1004.47 1002.78 1001.91 1000.92 999.87 998.70 997.65 996.56 995.06 993.52 993.25 992.78 992.69 992.79 993.13 993.52 994.04 994.74 995.62 996.37 997.14 997.94 998.67 999.59 1000.55 1001.54 1002.46 1003.38 1004.30 1005.04
1018.91 1017.95 1017.02 1016.20 1015.18 1014.14 1013.09 1011.98 1010.82 1009.62 1008.53 1007.35 1006.10 1004.90 1003.57 1002.73 1001.74 1000.66 999.65 998.60 997.45 996.14 994.41 993.42 993.28 993.31 993.33 993.54 993.88 994.49 995.30 996.12 996.84 997.57 998.30 998.97 999.81 1000.78 1001.78 1002.72 1003.68 1004.45 1005.14
1018.69 1017.92 1017.02 1016.11 1015.32 1014.32 1013.16 1012.18 1011.04 1009.98 1008.87 1007.78 1006.67 1005.47 1004.33 1003.41 1002.61 1001.72 1000.76 999.74 998.64 997.55 996.57 995.76 995.40 995.23 995.13 995.14 995.25 995.49 996.10 996.90 997.47 998.05 998.67 999.44 1000.20 1001.16 1002.12 1002.89 1003.64 1004.56 1005.47
1018.68 1018.09 1017.22 1016.31 1015.54 1014.63 1013.63 1012.55 1011.46 1010.41 1009.36 1008.28 1007.26 1006.25 1005.33 1004.44 1003.57 1002.75 1001.92 1001.04 1000.11 999.34 998.62 998.05 997.60 997.23 996.94 996.89 996.99 997.24 997.58 998.00 998.46 999.06 999.36 999.98 1000.74 1001.66 1002.54 1003.46 1004.25 1005.10 1005.98
1018.66 1018.08 1017.28 1016.59 1015.83 1014.96 1014.08 1013.17 1012.16 1011.12 1010.04 1009.05 1008.11 1007.25 1006.42 1005.52 1004.61 1003.85 1003.14 1002.41 1001.74 1001.03 1000.47 1000.10 999.67 999.27 998.97 998.71 998.65 998.65 998.78 999.03 999.54 1000.04 1000.43 1000.94 1001.57 1002.36 1003.14 1003.99 1004.83 1005.66 1006.41
1018.50 1018.15 1017.55 1016.90 1016.19 1015.44 1014.72 1013.90 1012.98 1012.04 1011.09 1010.15 1009.33 1008.56 1007.79 1006.90 1006.09 1005.31 1004.60 1003.89 1003.25 1002.69 1002.17 1001.73 1001.37 1000.98 1000.64 1000.47 1000.34 1000.26 1000.26 1000.37 1000.68 1001.15 1001.54 1002.04 1002.69 1003.49 1004.16 1004.93 1005.70 1006.37 1006.97
Wind_Speed
6 5 4 5 6 7 9 8 7 6 7 8 9 8 8 7 7 7 7 7 8 8 7 8 11 8 10 7 6 6 6 4 5 3 3 5 11 12 10 9 10 8 8
3 4 5 3 5 6 7 7 8 10 8 6 6 6 7 8 7 7 8 7 8 9 8 9 11 8 12 7 8 13 13 8 6 6 4 4 7 14 12 12 8 8 9
1 3 5 4 4 3 4 4 5 6 6 7 8 8 8 6 7 8 7 8 8 9 10 10 12 9 13 10 9 12 11 9 8 5 5 3 2 9 7 7 8 4 5
4 5 6 5 5 4 3 5 6 6 7 7 8 7 7 8 9 8 8 10 10 11 11 12 12 12 14 13 12 13 11 10 12 6 4 5 4 7 9 10 8 8 9
5 7 8 7 7 7 6 6 6 6 6 6 8 9 8 7 7 8 9 9 10 11 11 12 13 13 17 16 11 13 12 12 11 13 8 4 7 8 16 9 10 8 7
5 6 6 7 8 8 6 6 6 8 7 7 10 9 11 9 16 20 17 10 11 12 13 13 12 14 14 22 24 27 18 16 17 14 13 14 15 12 13 11 10 7 7
7 8 10 9 10 12 11 10 9 9 8 11 11 10 13 13 21 25 23 12 12 13 14 13 13 11 13 13 20 27 28 28 29 17 17 19 15 17 17 16 16 13 10
7 7 8 8 10 11 11 14 14 11 12 12 13 13 14 15 26 26 26 16 14 15 15 15 16 16 15 15 13 15 19 19 22 18 19 19 14 14 19 19 20 15 4
9 9 8 7 10 13 15 17 16 14 15 16 15 17 16 17 27 29 26 16 16 18 15 16 15 17 21 25 17 16 16 18 20 30 30 26 23 23 22 11 12 13 4
9 11 11 11 12 14 16 17 15 14 16 15 19 18 21 21 31 34 29 14 17 15 17 17 23 20 26 27 18 16 17 20 15 14 15 21 19 16 30 21 15 16 13
10 12 13 13 14 15 17 15 16 18 19 19 20 20 22 21 24 37 37 19 16 16 15 14 12 25 27 29 30 17 20 14 19 14 13 13 16 14 15 18 17 16 15
11 12 13 13 11 12 15 15 16 16 18 18 19 19 16 19 27 31 36 35 31 19 19 15 14 25 27 27 23 29 31 25 11 11 11 13 14 14 13 14 13 13 9
12 13 13 13 12 13 14 15 13 13 13 14 14 15 15 14 15 31 36 35 34 24 17 21 29 28 29 25 28 28 25 14 12 12 13 13 12 10 8 8 8 8 7
13 14 13 13 14 13 11 11 12 12 12 13 14 15 15 15 14 14 15 15 24 20 25 19 16 20 23 22 16 18 14 12 13 12 11 10 8 9 10 10 8 10 8
13 13 13 11 13 13 13 12 12 13 15 15 14 15 15 15 13 25 24 15 13 20 22 14 11 11 10 11 13 12 12 12 12 12 10 10 10 10 11 10 9 9 10
13 12 12 12 12 12 13 13 22 29 32 33 35 29 17 31 38 37 36 35 35 35 19 17 14 10 11 10 10 10 11 13 11 11 10 11 12 11 10 8 8 9 9
13 14 12 13 12 12 12 13 15 17 31 33 34 34 35 34 36 35 34 34 33 30 16 15 15 13 12 9 8 8 9 10 11 9 11 11 11 11 14 11 11 10 9
14 17 12 11 11 12 13 14 14 15 16 15 24 27 30 33 33 32 31 27 14 14 12 12 13 11 13 8 8 10 9 8 9 8 9 11 13 14 14 13 12 12 10
13 10 10 11 11 13 13 13 13 14 15 15 15 22 21 26 28 29 29 12 12 11 11 12 13 12 13 8 9 9 10 8 9 10 11 12 12 12 12 11 10 13 12
12 15 13 10 11 11 11 12 13 13 14 13 13 14 13 12 11 12 10 11 10 11 12 13 11 11 7 8 9 9 8 9 9 9 9 10 9 10 11 11 11 11 10
10 10 13 10 10 11 11 12 12 12 12 12 12 13 28 12 11 10 10 10 10 13 10 9 7 6 5 7 8 7 8 8 8 9 9 9 10 9 9 9 10 9 10
8 9 9 9 10 11 11 11 11 12 12 12 12 12 25 9 9 10 9 10 10 11 10 7 7 5 4 3 6 7 8 8 8 9 9 9 10 10 10 10 10 9 10
8 9 9 8 9 13 10 10 10 11 12 11 11 10 10 10 10 10 10 10 10 10 10 9 8 8 8 8 7 6 8 7 7 9 10 10 10 10 9 10 10 10 9
6 7 8 8 8 9 10 11 10 12 12 11 11 10 10 10 10 11 10 10 10 10 10 9 9 10 8 8 7 7 7 7 7 7 11 10 10 11 9 9 9 11 9
5 6 6 7 8 8 10 10 10 11 10 10 11 11 11 10 11 11 10 10 10 10 12 11 9 12 13 14 12 11 12 13 10 9 8 10 12 12 10 9 9 9 9
5 5 4 6 7 8 8 9 9 10 10 10 10 10 11 11 11 11 11 11 10 10 11 10 12 16 13 11 12 13 14 15 13 13 9 9 9 8 8 9 10 6 7
Wind_Direction
357 336 354 1 353 356 22 18 5 343 336 340 339 333 322 315 296 267 250 241 238 234 233 233 239 227 231 221 208 200 206 170 188 244 164 178 175 181 174 182 184 176 192
334 326 330 15 360 16 19 357 343 337 335 319 321 318 317 310 303 290 279 265 242 244 236 234 240 235 238 218 212 221 219 203 166 168 182 157 191 188 175 184 185 187 178
12 323 319 343 356 6 10 330 303 294 298 313 324 328 323 301 294 292 280 272 259 249 244 239 240 222 237 235 222 222 221 212 200 148 178 172 152 179 163 175 189 192 191
357 335 329 323 324 323 307 293 293 296 302 308 312 302 294 300 299 289 280 275 270 264 256 251 249 230 233 231 229 226 222 217 216 197 180 163 160 173 181 176 189 203 208
332 322 309 317 319 313 307 294 291 294 286 293 294 292 291 287 278 283 282 284 280 277 264 258 257 249 238 225 226 231 217 213 218 218 205 162 176 162 191 184 196 194 216
310 289 293 306 304 303 289 277 277 285 280 282 287 278 284 279 283 290 288 275 267 267 267 261 255 257 253 248 240 235 218 215 219 218 220 211 199 192 185 181 180 184 208
291 290 300 306 303 305 303 298 289 289 290 287 280 274 277 274 281 286 284 276 265 259 259 265 265 253 252 255 253 248 241 227 224 221 226 221 202 191 177 183 193 200 207
281 277 279 287 288 288 289 289 289 290 289 286 284 282 281 279 280 281 281 275 270 264 256 251 250 256 247 240 241 248 251 245 235 227 226 232 222 193 196 190 188 190 66
296 295 297 298 299 298 292 289 286 284 285 287 284 287 283 280 282 283 282 277 267 264 259 254 249 251 249 246 239 235 233 240 249 243 236 234 228 198 190 176 187 170 180
314 321 320 316 309 305 303 300 297 292 285 285 283 281 283 283 284 284 283 276 269 263 259 256 247 246 250 246 243 234 235 236 228 240 251 240 228 217 193 196 180 191 188
326 316 312 314 311 304 300 299 298 295 291 287 283 282 280 277 281 283 281 274 264 264 260 256 248 246 250 247 243 235 236 231 232 223 224 225 224 215 205 204 194 197 195
313 312 308 304 300 297 295 294 291 290 286 285 284 281 277 278 275 280 284 280 274 264 255 253 252 252 252 253 250 243 239 235 223 218 216 213 218 216 205 201 199 197 200
314 306 301 298 296 293 293 293 292 287 283 283 282 285 287 286 284 287 287 288 284 278 270 256 252 254 258 258 255 250 238 230 216 218 222 217 209 212 201 179 181 131 101
306 304 303 300 298 292 286 287 288 288 286 285 285 282 281 279 280 282 283 294 300 303 276 263 256 257 260 255 252 248 229 222 216 216 218 212 189 183 190 179 177 167 142
304 303 304 299 297 297 288 286 281 276 276 279 275 276 280 278 273 276 276 270 265 277 285 281 250 243 246 251 243 235 217 217 213 212 203 192 188 186 188 186 181 181 176
301 306 301 300 298 296 294 291 285 289 292 291 291 289 285 284 291 290 287 283 278 276 270 271 269 259 235 237 246 228 212 213 213 211 195 188 188 181 167 166 166 180 172
299 299 299 298 296 295 295 295 296 293 292 293 293 293 292 292 294 292 288 285 281 273 260 260 256 254 257 233 230 217 216 216 213 206 192 186 168 165 160 164 165 178 175
299 295 294 294 294 293 293 293 294 296 298 297 296 294 292 293 297 297 293 291 281 272 273 263 256 257 257 217 208 213 216 207 205 195 178 165 168 164 170 174 179 174 169
298 295 296 296 293 292 293 294 294 294 294 293 294 296 296 294 296 294 290 280 267 251 247 252 250 239 247 198 203 208 206 184 176 171 171 171 173 169 173 170 171 167 164
300 296 306 306 304 303 304 302 301 303 304 304 312 314 310 296 290 288 281 267 260 242 237 237 269 218 197 194 202 199 178 174 168 167 163 161 159 163 159 157 158 156 157
309 311 311 308 310 309 311 313 312 310 314 316 315 321 328 339 318 322 330 331 323 310 240 229 224 191 180 174 172 165 156 155 155 151 151 148 148 147 148 147 146 146 140
309 307 316 314 315 318 320 316 320 321 322 323 324 327 341 337 335 336 338 339 340 339 360 27 38 36 50 110 133 126 128 133 135 138 138 136 133 136 138 140 140 138 136
303 316 318 321 321 320 323 325 328 332 330 331 331 336 345 349 348 348 346 347 351 0 8 25 34 39 41 50 58 91 115 124 129 133 132 132 134 135 139 138 137 135 136
299 310 320 328 328 329 329 330 332 339 340 342 345 349 353 355 357 357 359 359 3 11 15 21 30 38 42 49 54 64 81 93 108 124 126 128 127 127 127 128 130 131 131
301 312 326 331 331 337 335 338 340 341 347 352 354 357 357 360 6 8 8 11 17 21 25 25 28 34 42 54 60 69 87 92 98 108 111 115 117 120 120 117 122 123 127
315 317 318 330 338 340 340 339 343 347 350 353 355 358 359 2 6 8 10 15 18 22 25 28 31 38 44 53 68 78 84 85 86 90 96 101 102 101 104 113 117 120 126